Location: Devore Heights
(34.2372°N, 117.4156°W)
Time: 03:37:26
(UTC+00:00)

S-56A Canister/Altair - Pass Details

Date: 21 September 2024
Orbit: 636 x 2487 km, 38.9° (Epoch: 05 October)

Event Time Altitude Azimuth Distance (km) Brightness Sun altitude
Rises 06:38:02 0° 287° (WNW) 3,945 11.5 -52.1°
Enters shadow 06:39:49 - 282° (WNW) 3,401 11.1 -52.3°
Reaches altitude 10° 06:40:32 10° 280° (W) 3,198 - -52.4°
Maximum altitude 06:48:11 43° 212° (SSW) 2,130 - -53.0°
Drops below altitude 10° 06:59:15 10° 146° (SE) 4,586 - -53.8°
Sets 07:03:39 0° 141° (SE) 5,811 - -54.1°
